date,time,DOY,Ta_1_1_1,RH_1_1_1,LWin_1_1_1,LWout_1_1_1,SWin_1_1_1,SWout_1_1_1,PPFD_1_1_1,SWC_1_1_1,Ts_1_1_1
[yyyy-mm-dd],[HH:MM],[ddd.ddd],[K],[%],[W+1m-2],[W+1m-2],[W+1m-2],[W+1m-2],[µmol+1m-2s-1],[m+3m-3],[K]
2013-04-28,00:30,118.020,283.50600000000003,73.384000000000000,-9999.0,-9999.0,-9.03333333333333349E-002,-3.6696666666666666,0.0000000000000000,-9999.0,273.15999999999991
2013-04-28,01:00,118.041,283.41866666666670,74.281999999999982,-9999.0,-9999.0,-0.11200000000000002,-3.5469999999999997,0.0000000000000000,-9999.0,273.15999999999991
2013-04-28,01:30,118.062,282.94700000000006,76.363000000000000,-9999.0,-9999.0,-0.33000000000000002,-3.7936666666666667,0.0000000000000000,-9999.0,273.15999999999991
2013-04-28,02:00,118.083,282.20500000000004,79.800333333333327,-9999.0,-9999.0,-0.31866666666666676,-3.8123333333333336,0.0000000000000000,-9999.0,273.15999999999991
2013-04-28,02:30,118.104,281.96733333333333,81.021666666666675,-9999.0,-9999.0,-9.63333333333333264E-002,-3.7143333333333333,0.0000000000000000,-9999.0,273.15999999999991
2013-04-28,03:00,118.124,281.52766666666673,83.028333333333350,-9999.0,-9999.0,-0.20066666666666663,-3.6896666666666662,0.0000000000000000,-9999.0,273.15999999999991
2013-04-28,03:30,118.145,281.02866666666671,85.486666666666665,-9999.0,-9999.0,-0.22766666666666660,-3.5023333333333340,0.0000000000000000,-9999.0,273.15999999999991
2013-04-28,04:00,118.166,280.81099999999992,86.395333333333312,-9999.0,-9999.0,-4.83333333333333184E-002,-3.1409999999999996,0.0000000000000000,-9999.0,273.15999999999991
2013-04-28,04:30,118.187,280.98666666666668,84.608333333333320,-9999.0,-9999.0,5.00000000000000028E-002,-3.1863333333333324,0.10566666666666666,-9999.0,273.15999999999991
2013-04-28,05:00,118.208,280.81433333333337,84.858666666666679,-9999.0,-9999.0,0.29433333333333334,-1.0266666666666666,6.2656666666666672,-9999.0,273.15999999999991
2013-04-28,05:30,118.229,280.44866666666672,86.577333333333357,-9999.0,-9999.0,3.3283333333333331,18.213333333333328,45.428333333333327,-9999.0,273.15999999999991
2013-04-28,06:00,118.249,280.88900000000001,84.348333333333329,-9999.0,-9999.0,16.895999999999997,98.688000000000002,167.80266666666665,-9999.0,273.15999999999991
2013-04-28,06:30,118.270,282.38666666666666,77.173000000000002,-9999.0,-9999.0,30.270666666666667,186.05900000000003,326.51300000000003,-9999.0,273.15999999999991
2013-04-28,07:00,118.291,283.66166666666663,71.505666666666656,-9999.0,-9999.0,44.858333333333341,287.71400000000000,523.61833333333345,-9999.0,273.15999999999991
2013-04-28,07:30,118.312,284.52033333333344,67.524666666666690,-9999.0,-9999.0,51.832333333333324,337.47599999999994,636.64233333333345,-9999.0,273.15999999999991
2013-04-28,08:00,118.333,285.29100000000005,63.499333333333340,-9999.0,-9999.0,72.993333333333339,465.30200000000002,886.53799999999978,-9999.0,273.15999999999991
2013-04-28,08:30,118.354,286.11800000000005,60.064666666666668,-9999.0,-9999.0,89.002333333333326,558.35066666666683,1080.9403333333332,-9999.0,273.15999999999991
2013-04-28,09:00,118.374,286.78600000000000,57.232333333333344,-9999.0,-9999.0,90.953666666666635,559.01266666666663,1097.4433333333332,-9999.0,273.15999999999991
2013-04-28,09:30,118.395,287.40866666666665,54.595666666666673,-9999.0,-9999.0,107.07100000000001,653.85266666666655,1288.0813333333331,-9999.0,273.15999999999991
2013-04-28,10:00,118.416,287.60599999999999,54.131666666666675,-9999.0,-9999.0,120.86166666666668,722.39033333333339,1428.3373333333327,-9999.0,273.15999999999991
2013-04-28,10:30,118.437,288.28033333333337,51.450666666666656,-9999.0,-9999.0,136.43533333333335,806.37099999999975,1602.2320000000002,-9999.0,273.15999999999991
2013-04-28,11:00,118.458,288.82666666666665,49.029333333333334,-9999.0,-9999.0,148.56133333333335,869.50933333333330,1738.8139999999996,-9999.0,273.15999999999991
2013-04-28,11:30,118.479,289.13766666666669,46.502333333333333,-9999.0,-9999.0,154.34333333333333,889.79066666666665,1786.3240000000001,-9999.0,273.15999999999991
2013-04-28,12:00,118.499,289.64366666666672,44.220666666666673,-9999.0,-9999.0,155.14333333333337,895.52366666666671,1801.2453333333335,-9999.0,273.15999999999991
2013-04-28,12:30,118.520,289.91866666666670,42.409333333333329,-9999.0,-9999.0,134.70333333333332,788.35233333333360,1592.2516666666663,-9999.0,273.15999999999991
2013-04-28,13:00,118.541,290.48166666666674,40.867666666666672,-9999.0,-9999.0,150.77533333333335,891.90500000000009,1794.1363333333336,-9999.0,273.15999999999991
2013-04-28,13:30,118.562,290.73133333333345,40.251666666666672,-9999.0,-9999.0,142.32266666666663,848.24366666666674,1709.9486666666667,-9999.0,273.15999999999991
2013-04-28,14:00,118.583,291.29100000000005,37.368000000000009,-9999.0,-9999.0,136.45933333333335,824.11100000000010,1661.0973333333329,-9999.0,273.15999999999991
2013-04-28,14:30,118.604,291.30433333333343,36.954000000000001,-9999.0,-9999.0,105.98399999999998,651.59533333333320,1317.6189999999999,-9999.0,273.15999999999991
2013-04-28,15:00,118.624,291.48233333333337,36.501999999999988,-9999.0,-9999.0,88.710000000000008,550.30999999999995,1124.4473333333333,-9999.0,273.15999999999991
2013-04-28,15:30,118.645,291.64033333333333,35.600000000000001,-9999.0,-9999.0,75.872333333333344,479.91533333333331,971.88433333333307,-9999.0,273.15999999999991
2013-04-28,16:00,118.666,291.66366666666664,35.195333333333330,-9999.0,-9999.0,52.950333333333340,329.76900000000006,670.78233333333333,-9999.0,273.15999999999991
2013-04-28,16:30,118.687,291.22266666666673,36.167333333333332,-9999.0,-9999.0,35.122666666666660,216.09433333333337,449.69333333333327,-9999.0,273.15999999999991
2013-04-28,17:00,118.708,290.92699999999996,36.844000000000015,-9999.0,-9999.0,23.886333333333329,147.25200000000001,310.34066666666678,-9999.0,273.15999999999991
2013-04-28,17:30,118.729,290.88266666666669,36.858666666666664,-9999.0,-9999.0,20.478666666666665,125.71800000000002,263.48733333333331,-9999.0,273.15999999999991
2013-04-28,18:00,118.749,290.86699999999996,37.122333333333337,-9999.0,-9999.0,13.227333333333331,83.903666666666638,174.58366666666669,-9999.0,273.15999999999991
2013-04-28,18:30,118.770,290.36199999999997,38.526333333333334,-9999.0,-9999.0,5.8479999999999981,38.064666666666660,85.286333333333332,-9999.0,273.15999999999991
2013-04-28,19:00,118.791,289.61366666666675,40.570666666666668,-9999.0,-9999.0,0.99900000000000022,8.4229999999999983,24.816333333333336,-9999.0,273.15999999999991
2013-04-28,19:30,118.812,289.12966666666665,42.286999999999999,-9999.0,-9999.0,-0.94333333333333325,-1.8963333333333336,1.9196666666666664,-9999.0,273.15999999999991
2013-04-28,20:00,118.833,288.72300000000001,43.400333333333329,-9999.0,-9999.0,-1.0619999999999998,-2.4693333333333336,7.00000000000000101E-003,-9999.0,273.15999999999991
2013-04-28,20:30,118.854,288.30133333333339,44.960999999999999,-9999.0,-9999.0,-1.1093333333333335,-2.0250000000000004,0.0000000000000000,-9999.0,273.15999999999991
2013-04-28,21:00,118.874,288.04800000000000,46.374333333333340,-9999.0,-9999.0,-1.1313333333333331,-1.7513333333333336,0.0000000000000000,-9999.0,273.15999999999991
2013-04-28,21:30,118.895,287.53900000000004,49.664666666666669,-9999.0,-8.5960000000000001,-0.34166666666666679,-4.3443333333333332,0.0000000000000000,-9999.0,273.15999999999991
2013-04-28,22:00,118.916,285.02966666666669,74.286666666666690,-9999.0,-5.8573076923076934,1.8393333333333335,-5.3123333333333322,0.0000000000000000,-9999.0,273.15999999999991
2013-04-28,22:30,118.937,284.02633333333330,88.487333333333325,-9999.0,-3.6696666666666671,0.16766666666666677,-2.5136666666666665,0.0000000000000000,-9999.0,273.15999999999991
2013-04-28,23:00,118.958,283.83100000000002,93.089333333333343,-9999.0,-1.7629999999999997,-0.25500000000000000,-1.9086666666666665,0.0000000000000000,-9999.0,273.15999999999991
2013-04-28,23:30,118.979,283.59433333333334,95.364333333333335,-9999.0,-0.86600000000000021,-0.66033333333333333,-1.1233333333333333,0.0000000000000000,-9999.0,273.15999999999991
2013-04-29,00:00,119.000,283.93099999999993,93.688333333333347,-9999.0,-0.78100000000000003,-0.47366666666666662,-1.3913333333333335,0.0000000000000000,-9999.0,273.15999999999991
